TimePDT,TemperatureF,Dew PointF,Humidity,Sea Level PressureIn,VisibilityMPH,Wind Direction,Wind SpeedMPH,Gust SpeedMPH,PrecipitationIn,Events,Conditions,WindDirDegrees,DateUTC
12:03 AM,42.8,42.8,100,30.22,3.0,Calm,Calm,-,N/A,,Mostly Cloudy,0,2011-10-08 07:03:00
12:08 AM,44.6,42.8,93,30.21,2.5,Calm,Calm,-,N/A,,Mostly Cloudy,0,2011-10-08 07:08:00
12:15 AM,44.6,42.8,93,30.21,1.2,Calm,Calm,-,N/A,,Mostly Cloudy,0,2011-10-08 07:15:00
12:24 AM,44.6,42.8,93,30.21,0.2,Calm,Calm,-,N/A,Fog,Fog,0,2011-10-08 07:24:00
12:33 AM,42.8,42.8,100,30.22,0.5,Calm,Calm,-,N/A,Fog,Fog,0,2011-10-08 07:33:00
12:44 AM,44.6,42.8,93,30.21,0.2,Calm,Calm,-,N/A,Fog,Fog,0,2011-10-08 07:44:00
12:53 AM,44.1,43.0,96,30.22,0.5,Calm,Calm,-,N/A,Fog,Fog,0,2011-10-08 07:53:00
1:02 AM,44.6,44.6,100,30.21,1.5,ENE,3.5,-,N/A,,Mostly Cloudy,60,2011-10-08 08:02:00
1:11 AM,44.6,44.6,100,30.21,3.0,NE,3.5,-,N/A,,Mostly Cloudy,40,2011-10-08 08:11:00
1:28 AM,46.4,46.4,100,30.21,3.0,East,3.5,-,N/A,,Overcast,80,2011-10-08 08:28:00
1:33 AM,46.4,44.6,93,30.21,1.8,ENE,3.5,-,N/A,,Overcast,70,2011-10-08 08:33:00
1:41 AM,48.2,48.2,100,30.21,1.0,East,3.5,-,N/A,,Overcast,100,2011-10-08 08:41:00
1:48 AM,46.4,46.4,100,30.20,0.8,East,4.6,-,N/A,,Overcast,80,2011-10-08 08:48:00
1:53 AM,48.0,46.9,96,30.21,0.8,East,4.6,-,N/A,,Overcast,90,2011-10-08 08:53:00
2:42 AM,48.2,48.2,100,30.20,1.5,Calm,Calm,-,N/A,,Overcast,0,2011-10-08 09:42:00
2:46 AM,48.2,46.4,93,30.20,3.0,Calm,Calm,-,N/A,,Overcast,0,2011-10-08 09:46:00
2:53 AM,48.0,46.9,96,30.21,4.0,Calm,Calm,-,N/A,,Mostly Cloudy,0,2011-10-08 09:53:00
3:06 AM,46.4,46.4,100,30.20,7.0,Calm,Calm,-,N/A,,Scattered Clouds,0,2011-10-08 10:06:00
3:18 AM,46.4,46.4,100,30.20,1.8,Calm,Calm,-,N/A,,Scattered Clouds,0,2011-10-08 10:18:00
3:25 AM,46.4,44.6,93,30.20,1.0,Calm,Calm,-,N/A,,Mostly Cloudy,0,2011-10-08 10:25:00
3:29 AM,46.4,44.6,93,30.20,2.5,Calm,Calm,-,N/A,,Mostly Cloudy,0,2011-10-08 10:29:00
3:36 AM,46.4,46.4,100,30.20,8.0,Calm,Calm,-,N/A,,Overcast,0,2011-10-08 10:36:00
3:53 AM,46.0,46.0,100,30.20,7.0,Calm,Calm,-,N/A,,Overcast,0,2011-10-08 10:53:00
4:08 AM,46.4,46.4,100,30.19,1.8,Calm,Calm,-,N/A,,Overcast,0,2011-10-08 11:08:00
4:15 AM,46.4,46.4,100,30.19,0.8,Calm,Calm,-,N/A,,Overcast,0,2011-10-08 11:15:00
4:28 AM,46.4,46.4,100,30.19,1.8,East,3.5,-,N/A,,Overcast,90,2011-10-08 11:28:00
4:30 AM,46.4,46.4,100,30.19,3.0,East,3.5,-,N/A,,Overcast,90,2011-10-08 11:30:00
4:53 AM,48.0,46.9,96,30.19,10.0,Calm,Calm,-,N/A,,Overcast,0,2011-10-08 11:53:00
5:45 AM,48.2,46.4,93,30.17,10.0,ENE,5.8,-,N/A,,Overcast,70,2011-10-08 12:45:00
5:53 AM,48.0,46.9,96,30.17,10.0,ENE,3.5,-,N/A,,Overcast,60,2011-10-08 12:53:00
6:53 AM,48.9,48.0,97,30.16,10.0,East,4.6,-,N/A,,Overcast,80,2011-10-08 13:53:00
7:03 AM,48.2,46.4,93,30.16,10.0,East,5.8,-,N/A,,Overcast,80,2011-10-08 14:03:00
7:53 AM,48.9,46.9,93,30.15,10.0,East,5.8,-,N/A,,Clear,80,2011-10-08 14:53:00
8:00 AM,-9999,-9999,N/A,-9999,-9999.0,North,-9999.0,-,N/A,,Unknown,0,2011-10-08 15:00:00
8:53 AM,50.0,48.0,93,30.15,10.0,East,3.5,-,N/A,,Overcast,100,2011-10-08 15:53:00
9:03 AM,50.0,48.2,94,30.14,8.0,East,3.5,-,N/A,,Overcast,80,2011-10-08 16:03:00
9:24 AM,51.8,48.2,88,30.15,10.0,East,3.5,-,N/A,,Overcast,100,2011-10-08 16:24:00
9:31 AM,51.8,48.2,88,30.15,10.0,Calm,Calm,-,N/A,,Overcast,0,2011-10-08 16:31:00
9:53 AM,53.1,51.1,93,30.14,10.0,Calm,Calm,-,N/A,,Overcast,0,2011-10-08 16:53:00
10:53 AM,57.9,53.1,84,30.13,10.0,South,8.1,-,N/A,,Overcast,170,2011-10-08 17:53:00
11:53 AM,57.9,52.0,81,30.13,10.0,South,8.1,-,N/A,,Overcast,190,2011-10-08 18:53:00
12:53 PM,59.0,55.9,90,30.10,10.0,South,11.5,17.3,0.01,,Mostly Cloudy,190,2011-10-08 19:53:00
1:53 PM,60.1,52.0,75,30.09,10.0,South,11.5,21.9,N/A,,Mostly Cloudy,180,2011-10-08 20:53:00
2:53 PM,59.0,50.0,72,30.09,10.0,Variable,6.9,19.6,N/A,,Overcast,0,2011-10-08 21:53:00
3:53 PM,57.9,52.0,81,30.09,10.0,South,12.7,24.2,N/A,,Overcast,190,2011-10-08 22:53:00
4:49 PM,55.4,53.6,94,30.07,3.0,SSE,8.1,16.1,0.02,Rain,Light Rain,160,2011-10-08 23:49:00
4:53 PM,55.9,54.0,93,30.08,4.0,Variable,5.8,16.1,0.03,Rain,Light Rain,0,2011-10-08 23:53:00
5:05 PM,55.4,53.6,94,30.07,2.5,SSE,8.1,-,0.00,Rain,Light Rain,160,2011-10-09 00:05:00
5:14 PM,55.4,53.6,94,30.08,1.5,Variable,4.6,-,0.01,Rain,Light Rain,0,2011-10-09 00:14:00
5:32 PM,55.4,53.6,94,30.08,1.2,Variable,6.9,-,0.04,Rain,Light Rain,0,2011-10-09 00:32:00
5:41 PM,55.4,53.6,94,30.07,1.5,SSE,9.2,-,0.06,Rain,Light Rain,160,2011-10-09 00:41:00
5:43 PM,55.4,53.6,94,30.07,1.2,Variable,6.9,-,0.07,Rain,Light Rain,0,2011-10-09 00:43:00
5:53 PM,55.0,54.0,96,30.07,1.5,Variable,5.8,-,0.09,Rain,Light Rain,0,2011-10-09 00:53:00
6:05 PM,55.4,53.6,94,30.07,1.8,Variable,6.9,-,0.03,Rain,Light Rain,0,2011-10-09 01:05:00
6:18 PM,53.6,53.6,100,30.06,1.2,South,8.1,19.6,0.07,Rain,Rain,170,2011-10-09 01:18:00
6:23 PM,53.6,53.6,100,30.07,1.8,South,10.4,-,0.08,Rain,Light Rain,170,2011-10-09 01:23:00
6:27 PM,53.6,53.6,100,30.07,2.5,Variable,5.8,-,0.09,Rain,Light Rain,0,2011-10-09 01:27:00
6:34 PM,53.6,53.6,100,30.07,3.0,South,9.2,18.4,0.10,Rain,Light Rain,190,2011-10-09 01:34:00
6:53 PM,54.0,53.1,97,30.06,5.0,South,8.1,20.7,0.12,Rain,Light Rain,170,2011-10-09 01:53:00
7:25 PM,53.6,53.6,100,30.06,2.0,South,9.2,17.3,0.05,Rain,Light Rain,180,2011-10-09 02:25:00
7:45 PM,53.6,53.6,100,30.06,1.5,South,8.1,18.4,0.10,Rain,Rain,190,2011-10-09 02:45:00
7:53 PM,54.0,53.1,97,30.07,1.5,South,9.2,-,0.13,Rain,Rain,180,2011-10-09 02:53:00
8:23 PM,53.6,53.6,100,30.06,2.0,South,9.2,-,0.07,Rain,Light Rain,190,2011-10-09 03:23:00
8:42 PM,53.6,53.6,100,30.06,2.0,Variable,4.6,-,0.09,Rain,Light Rain,0,2011-10-09 03:42:00
8:53 PM,54.0,53.1,97,30.07,2.5,Variable,5.8,-,0.10,Rain,Light Rain,0,2011-10-09 03:53:00
9:03 PM,53.6,53.6,100,30.07,1.8,Variable,5.8,-,0.01,Rain,Light Rain,0,2011-10-09 04:03:00
9:42 PM,53.6,53.6,100,30.08,1.2,West,10.4,17.3,0.14,Rain,Rain,260,2011-10-09 04:42:00
9:46 PM,53.6,53.6,100,30.08,2.0,West,12.7,-,0.15,Rain,Light Rain,280,2011-10-09 04:46:00
9:53 PM,53.1,52.0,96,30.09,3.0,West,6.9,-,0.16,Rain,Light Rain,270,2011-10-09 04:53:00
10:01 PM,53.6,51.8,94,30.08,3.0,West,5.8,-,0.00,Rain,Light Rain,270,2011-10-09 05:01:00
10:53 PM,53.1,52.0,96,30.08,4.0,Calm,Calm,-,0.02,Rain,Light Rain,0,2011-10-09 05:53:00
11:04 PM,53.6,51.8,94,30.08,4.0,ESE,4.6,-,0.00,Rain,Light Rain,110,2011-10-09 06:04:00
11:53 PM,52.0,52.0,100,30.08,8.0,Calm,Calm,-,0.00,,Overcast,0,2011-10-09 06:53:00